Weather in Komarovka

Russia / Penza Oblast     52°59′25″N   46°42′29″E
temp.,
°C
wind,
m/s
gust,
m/s
humid.,
%
clouds,
%
prec.,
mm/h
press.,
hPa
HPBL,
m
28 september, tue
tue2800:00+6ne4991100 0.2 1016644
03:00+5ne5983100 0.2 1018606
06:00+4ne4790100 0.1 1020812
09:00+4ne5889100 0.1 1022868
12:00+6ne5765100 0.1 10241132
15:00+8ne575114 0.1 10241447
18:00+4nne496645 0.0 1027324
21:00+3nne310765 0.0 1028318
29 september, wed
wed2900:00+1n2885100 0.0 1029198
03:00+1n3985100 0.0 1029240
06:000n398995 0.0 1030231
09:00+6nne47645 0.0 1030872
12:00+9nne45489 0.0 10301555
15:00+9nne46449 0.0 10291704
18:00+4nne23655 0.0 103057
21:00+3n22745 0.0 103127
30 september, thu
thu3000:00+2n227988 0.0 103131
03:00+3nnw2476100 0.0 1031104
06:00+2n24798 0.0 1032109
09:00+7nne35598 0.0 1032680
12:00+8nne3458100 0.0 10321366
15:00+7n247189 0.0 1032597
18:00+6nw2376100 0.0 1032111
21:00+6nnw237875 0.0 1032111
1 october, fri
fri100:00+6wnw1282100 0.0 103370
03:00+6w2580100 0.0 1032172
06:00+7wnw3881100 0.0 1032280
09:00+9nw3677100 0.0 1032347
12:00+10nw237199 0.0 1032529
15:00+13nw3459100 0.0 10311138
18:00+10nw257686 0.0 1032134
21:00+10nw117312 0.0 103213
2 october, sat
sat200:00+7n118961 0.0 103311
03:00+9nnw1181100 0.0 103316
06:00+9nnw2384100 0.0 103367
09:00+11nnw2480100 0.0 1033234
12:00+12n2378100 0.0 1033474
15:00+12nne2376100 0.0 1033561
18:00+10nne2384100 0.0 103371
21:00+10ne2286100 0.0 103485